Terminal Aerodrome Forecast
Issued by NWS

Home | Current Version | Previous Version | Text Only | Print | Product List | Glossary On
Versions: 1 2 3 4 5 6 7 8 9 10 11 12 13 14 15 16 17 18 19 20 21 22 23 24
648
FTUS43 KPAH 180541
TAFCGI
TAF
KCGI 180541Z 1806/1906 33004KT P6SM OVC010
     FM181200 VRB02KT 5SM BR OVC008
     FM181700 15003KT P6SM SCT060 BKN200=

USA.gov is the U.S. government's official web portal to all federal, state and local government web resources and services.